Temp
-4 -4 -3 -2 -2 -1 0 -0 0 0 -1 -1 1 2 3 3 2 3 4 4 5 5 5 5 6 6 6 6 6 6 6 6 6 6 7 6 7 6 6 6 6 6 6 6
-4 -3 -2 -2 -1 -1 -1 -1 -1 -1 -0 -1 -0 2 2 1 2 3 4 5 5 5 4 4 5 6 6 5 5 6 6 6 6 6 6 6 6 6 6 5 5 5 6 6
-2 -3 -2 -2 -2 -1 -0 -1 -1 -1 -1 -1 -0 1 1 2 1 3 3 4 4 5 4 4 4 5 6 5 5 6 5 5 5 6 6 6 6 6 6 5 5 5 5 5
-3 -3 -2 -2 -2 -0 0 1 1 0 -1 0 1 1 3 3 2 2 3 3 4 4 4 4 4 4 4 5 5 5 5 6 5 5 6 5 5 5 5 5 5 5 5 5
-3 -2 -1 -1 -2 -1 0 1 1 1 1 1 1 1 4 4 3 3 3 4 4 4 3 3 3 4 3 4 5 5 5 5 5 5 5 5 5 5 5 5 5 5 5 5
-2 -2 -1 -1 -1 0 0 1 0 -0 0 -1 1 2 3 4 4 3 3 3 3 3 4 3 3 3 3 4 5 4 4 5 4 5 4 5 4 4 4 4 4 4 4 4
-2 -2 -2 -2 -0 0 1 1 -1 -1 -3 -2 2 2 3 3 3 3 3 3 3 3 3 3 3 3 3 3 3 3 4 4 3 3 4 4 4 4 4 4 4 4 4 3
-3 -3 -1 -2 -1 -0 0 1 0 -2 -3 -2 1 2 3 3 3 3 3 3 3 3 3 2 3 3 3 3 3 3 3 3 3 3 3 3 4 4 3 3 3 2 2 3
-3 -3 -2 -1 -1 -0 -0 -0 0 1 1 -1 1 2 2 2 3 3 3 3 3 3 2 2 2 2 2 3 3 3 3 3 3 3 3 2 2 3 3 2 1 2 3 2
-2 -3 -3 -1 -1 -1 -0 -1 0 0 -3 0 -0 2 3 2 2 3 3 3 3 2 2 2 2 2 2 3 2 3 3 3 2 2 2 2 2 2 1 2 2 3 1 2
-2 -2 -3 -2 -1 -1 -1 -1 -0 0 0 -4 -2 1 2 3 3 2 2 1 1 1 1 2 2 2 2 3 3 3 3 3 3 2 2 2 1 1 1 2 2 2 2 2
-2 -2 -3 -3 -2 -2 -1 -1 -0 -0 -1 -0 -0 1 2 2 2 2 1 1 1 1 2 2 2 2 3 3 3 3 3 3 3 3 3 3 2 2 1 2 2 2 2 2
-2 -3 -3 -3 -3 -2 -2 -1 -1 -1 -0 -0 -2 1 1 1 1 1 0 -1 -1 -0 1 2 2 2 2 2 3 3 3 3 3 2 2 2 2 1 1 1 1 1 1 1
-2 -2 -2 -2 -2 -1 -2 -1 -1 -1 -1 -1 -0 1 0 0 -0 -0 -0 -1 -1 -0 0 1 1 2 2 2 2 2 2 2 2 2 2 1 1 1 1 1 0 0 1 1
-2 -2 -2 -2 -2 -2 -1 -1 -1 -1 -1 -1 0 0 1 0 -0 -0 -1 -0 -0 -0 0 1 1 1 2 1 1 1 1 1 1 1 1 0 0 -0 -0 -0 -0 -0 0 0
-3 -2 -2 -2 -2 -2 -2 -2 -1 -2 -2 -1 -1 -1 -0 -0 -1 -1 -1 -1 -0 0 0 1 1 1 1 2 1 0 0 0 1 0 0 -0 -0 -1 -1 -1 -1 -1 -0 -0
-3 -3 -3 -3 -3 -3 -3 -1 -1 -1 -1 -1 -2 -1 -2 -2 -2 -1 -2 -2 -2 -1 -0 -0 0 1 1 1 1 0 -0 -0 -0 -0 -0 -1 -1 -1 -1 -1 -1 -1 -1 -1
-3 -4 -4 -4 -4 -6 -1 -1 -1 -1 -1 -2 -2 -2 -2 -2 -2 -2 -2 -2 -2 -2 -1 -1 -0 -0 0 -0 0 0 -1 -1 -1 -1 -1 -1 -1 -2 -1 -1 -1 -1 -1 -1
-4 -4 -4 -4 -4 -3 -2 -2 -2 -1 -2 -3 -3 -3 -3 -2 -2 -3 -3 -3 -3 -2 -2 -2 -1 -1 -0 -1 -1 -1 -1 -1 -1 -1 -1 -2 -2 -2 -2 -2 -2 -1 -1 -1
-4 -4 -4 -4 -4 -4 -2 -2 -2 -2 -3 -3 -3 -3 -3 -3 -3 -3 -3 -4 -3 -3 -3 -2 -2 -1 -1 -1 -2 -2 -2 -2 -2 -2 -2 -2 -2 -2 -2 -2 -2 -2 -2 -2
-4 -5 -4 -4 -4 -3 -3 -3 -3 -3 -4 -3 -4 -4 -4 -4 -4 -4 -4 -4 -4 -4 -3 -3 -3 -3 -2 -2 -3 -3 -3 -2 -2 -2 -2 -2 -2 -2 -2 -3 -2 -2 -2 -2
-3 -4 -4 -4 -4 -5 -4 -4 -4 -4 -3 -4 -5 -5 -5 -4 -4 -5 -4 -4 -4 -4 -4 -4 -4 -4 -3 -3 -3 -3 -3 -3 -2 -2 -2 -2 -3 -3 -3 -3 -3 -3 -3 -3
-4 -3 -4 -4 -4 -4 -4 -4 -4 -5 -5 -5 -5 -5 -5 -5 -4 -4 -4 -4 -4 -4 -5 -4 -4 -4 -4 -4 -4 -4 -4 -3 -3 -3 -3 -3 -3 -3 -3 -3 -3 -3 -4 -3
-4 -4 -4 -4 -5 -5 -4 -4 -5 -5 -5 -5 -5 -5 -5 -4 -4 -4 -4 -4 -4 -4 -5 -5 -5 -5 -5 -5 -5 -4 -4 -4 -4 -4 -4 -4 -4 -4 -3 -3 -3 -4 -4 -4
-4 -4 -4 -5 -5 -5 -4 -4 -4 -4 -5 -5 -5 -5 -5 -5 -4 -4 -4 -4 -4 -4 -4 -5 -5 -5 -5 -5 -5 -5 -5 -5 -5 -4 -4 -5 -4 -4 -4 -4 -4 -4 -5 -5
-4 -4 -4 -4 -4 -5 -5 -5 -5 -5 -5 -5 -5 -5 -5 -5 -5 -5 -5 -5 -4 -4 -5 -5 -5 -5 -6 -5 -6 -6 -6 -6 -5 -5 -5 -4 -4 -4 -4 -4 -4 -4 -4 -4
Height
3033 3039 3042 3046 3052 3058 3065 3068 3073 3078 3082 3081 3087 3094 3099 3103 3109 3114 3116 3120 3123 3128 3130 3130 3135 3138 3141 3142 3145 3148 3152 3155 3156 3157 3160 3162 3164 3166 3167 3168 3170 3172 3174 3175
3039 3040 3046 3051 3056 3060 3064 3070 3077 3080 3083 3088 3090 3092 3094 3101 3105 3110 3113 3116 3118 3122 3126 3127 3129 3133 3136 3138 3141 3145 3147 3149 3152 3153 3156 3158 3160 3161 3163 3165 3166 3168 3170 3170
3037 3041 3046 3051 3053 3058 3065 3073 3077 3082 3084 3089 3092 3096 3097 3099 3103 3107 3109 3112 3114 3116 3119 3123 3124 3127 3131 3133 3137 3140 3143 3145 3148 3149 3151 3153 3155 3157 3158 3161 3162 3164 3165 3166
3042 3045 3049 3055 3058 3062 3067 3071 3077 3081 3083 3085 3088 3091 3088 3094 3100 3102 3105 3107 3109 3112 3113 3116 3120 3121 3125 3129 3132 3135 3137 3140 3143 3144 3146 3149 3150 3152 3154 3156 3158 3159 3160 3160
3041 3047 3052 3057 3060 3064 3067 3069 3075 3079 3084 3085 3089 3092 3090 3091 3095 3097 3101 3103 3105 3108 3110 3112 3115 3117 3120 3124 3127 3130 3132 3134 3137 3139 3141 3143 3145 3147 3149 3150 3152 3153 3153 3154
3045 3050 3055 3058 3063 3065 3070 3073 3078 3081 3085 3089 3088 3089 3090 3090 3092 3096 3098 3098 3100 3105 3107 3108 3111 3113 3116 3118 3121 3123 3126 3129 3130 3132 3135 3136 3138 3140 3142 3144 3145 3146 3147 3149
3050 3055 3059 3062 3064 3068 3070 3070 3078 3085 3088 3088 3086 3090 3090 3092 3093 3094 3094 3093 3097 3100 3102 3103 3105 3109 3111 3113 3115 3118 3120 3123 3125 3127 3128 3131 3132 3135 3137 3138 3139 3140 3141 3141
3054 3060 3061 3062 3065 3068 3071 3074 3076 3083 3088 3086 3086 3087 3088 3089 3089 3090 3091 3092 3094 3096 3098 3100 3101 3102 3104 3107 3110 3112 3114 3116 3119 3121 3124 3125 3127 3130 3131 3132 3132 3132 3133 3134
3057 3061 3062 3064 3066 3070 3072 3074 3077 3077 3081 3083 3083 3085 3086 3085 3084 3084 3086 3090 3092 3093 3094 3096 3097 3098 3099 3102 3104 3106 3107 3109 3112 3114 3115 3118 3120 3121 3123 3123 3123 3125 3125 3124
3057 3062 3064 3067 3069 3071 3072 3076 3079 3078 3083 3082 3081 3080 3080 3080 3079 3080 3083 3088 3090 3091 3092 3093 3095 3095 3093 3094 3097 3099 3100 3102 3103 3104 3107 3109 3111 3113 3114 3115 3115 3116 3116 3117
3058 3060 3066 3067 3069 3070 3073 3073 3075 3076 3081 3083 3081 3077 3076 3078 3079 3081 3084 3087 3088 3089 3091 3092 3092 3091 3090 3091 3092 3093 3093 3094 3095 3097 3099 3102 3103 3105 3104 3107 3108 3108 3108 3108
3059 3061 3064 3067 3068 3070 3071 3074 3076 3077 3080 3078 3076 3078 3078 3079 3080 3084 3086 3085 3086 3087 3087 3088 3088 3087 3086 3086 3086 3086 3086 3087 3088 3089 3091 3093 3095 3096 3098 3099 3099 3099 3099 3099
3058 3061 3065 3068 3070 3069 3070 3072 3075 3077 3077 3077 3079 3080 3081 3082 3084 3085 3084 3081 3081 3081 3082 3082 3082 3081 3080 3080 3080 3080 3080 3080 3081 3082 3083 3084 3086 3087 3089 3090 3090 3090 3090 3089
3058 3060 3061 3061 3062 3064 3066 3069 3072 3073 3074 3074 3074 3077 3079 3080 3080 3079 3078 3077 3077 3078 3078 3076 3074 3074 3073 3073 3072 3072 3072 3073 3073 3074 3075 3077 3079 3080 3081 3082 3082 3082 3081 3080
3057 3059 3060 3061 3062 3062 3063 3064 3066 3068 3069 3069 3069 3072 3074 3074 3074 3074 3073 3073 3073 3072 3072 3071 3068 3066 3066 3067 3066 3065 3066 3067 3067 3068 3070 3071 3072 3074 3074 3075 3075 3075 3074 3072
3055 3058 3059 3060 3061 3062 3062 3062 3062 3063 3065 3065 3067 3066 3070 3070 3068 3068 3067 3067 3067 3065 3064 3063 3062 3060 3059 3060 3061 3060 3061 3062 3062 3063 3064 3066 3067 3067 3068 3068 3068 3067 3066 3065
3054 3055 3058 3059 3059 3059 3059 3056 3057 3058 3059 3061 3061 3062 3064 3063 3063 3063 3062 3061 3060 3058 3057 3055 3054 3053 3053 3052 3052 3054 3055 3056 3057 3058 3059 3060 3061 3062 3063 3063 3062 3061 3059 3058
3052 3054 3056 3057 3058 3060 3053 3052 3054 3054 3056 3057 3058 3059 3059 3058 3058 3058 3057 3056 3055 3053 3051 3049 3047 3047 3045 3044 3045 3047 3048 3050 3052 3053 3054 3055 3055 3056 3056 3056 3055 3054 3052 3051
3051 3054 3055 3055 3055 3054 3052 3051 3052 3052 3053 3053 3053 3054 3053 3054 3055 3053 3052 3051 3050 3049 3046 3043 3041 3040 3038 3038 3038 3040 3042 3044 3045 3046 3047 3048 3049 3049 3049 3048 3047 3046 3045 3043
3049 3052 3054 3054 3055 3052 3049 3048 3048 3049 3048 3049 3049 3050 3051 3052 3051 3050 3049 3048 3046 3044 3042 3039 3036 3034 3032 3032 3032 3033 3035 3036 3038 3039 3040 3041 3042 3042 3042 3041 3040 3038 3037 3035
3044 3047 3050 3051 3050 3046 3046 3047 3047 3049 3050 3046 3048 3048 3048 3048 3047 3046 3044 3044 3042 3039 3037 3034 3032 3030 3028 3027 3027 3028 3029 3030 3031 3032 3033 3034 3034 3034 3034 3032 3031 3030 3029 3027
3040 3043 3044 3047 3047 3048 3044 3044 3046 3044 3043 3044 3044 3044 3044 3043 3042 3041 3040 3038 3036 3034 3032 3030 3028 3027 3025 3024 3023 3024 3024 3025 3024 3025 3026 3026 3027 3027 3026 3024 3023 3021 3019 3018
3037 3037 3039 3042 3042 3039 3040 3041 3041 3041 3042 3041 3040 3039 3039 3038 3037 3035 3033 3032 3030 3028 3027 3025 3024 3023 3021 3020 3019 3019 3019 3018 3018 3019 3019 3019 3019 3018 3017 3015 3012 3010 3009 3008
3032 3034 3036 3038 3036 3035 3036 3037 3038 3039 3038 3038 3038 3036 3034 3032 3030 3028 3026 3025 3022 3021 3020 3019 3018 3017 3017 3015 3015 3014 3013 3012 3012 3012 3011 3011 3010 3010 3008 3006 3004 3000 2998 2997
3029 3030 3031 3032 3032 3032 3032 3033 3034 3034 3033 3032 3031 3029 3027 3024 3021 3018 3016 3014 3012 3011 3010 3010 3010 3010 3010 3009 3008 3007 3007 3006 3005 3005 3004 3003 3003 3002 3001 2999 2997 2994 2992 2990
3025 3025 3026 3026 3028 3028 3027 3028 3028 3028 3027 3025 3023 3021 3018 3014 3011 3010 3007 3005 3002 3000 2999 2999 2999 3000 3001 3001 3001 2999 2998 2998 2998 2998 2997 2996 2995 2994 2993 2991 2990 2988 2986 2983
Wind_Speed
24 27 29 29 24 18 15 19 23 23 4 5 17 21 28 27 28 26 29 30 22 26 24 26 28 28 27 27 28 27 27 25 23 22 22 22 22 22 22 21 20 19 19 19
29 15 28 18 19 16 15 13 12 10 22 7 13 12 20 27 22 21 21 23 33 30 33 24 25 28 27 26 26 26 25 25 25 24 23 22 21 19 19 20 20 21 21 22
31 14 11 23 22 16 16 26 14 12 19 14 10 8 25 19 19 18 18 20 22 24 33 30 26 27 28 27 24 27 25 24 26 27 27 25 24 24 24 23 22 22 23 22
16 10 17 15 19 17 16 15 12 20 11 7 10 2 12 22 24 22 22 20 18 23 25 31 30 31 31 30 28 23 27 28 28 29 31 29 27 26 26 27 25 23 23 24
17 18 18 21 9 13 15 17 17 10 10 5 18 2 2 9 23 19 17 20 19 19 24 25 34 32 29 33 37 30 28 29 31 30 31 32 30 29 27 25 24 24 25 26
25 20 19 15 13 17 26 25 20 14 12 1 13 7 4 11 10 16 20 18 10 8 16 29 34 36 34 33 37 36 34 32 31 33 32 33 31 28 24 22 22 21 22 24
20 13 21 16 16 18 19 22 5 4 2 4 8 9 5 10 8 15 14 14 15 23 17 16 21 33 35 34 34 36 37 32 31 32 33 33 31 28 27 29 31 33 36 42
7 5 14 13 14 12 14 10 6 5 4 4 6 8 9 10 9 12 9 18 16 17 21 23 22 26 30 37 36 36 32 31 32 32 33 33 31 31 31 30 34 38 39 40
8 4 11 14 12 17 18 3 2 4 4 4 6 7 8 6 9 13 15 18 17 21 24 25 27 26 26 24 26 30 30 35 37 36 34 33 31 32 33 37 43 35 32 34
7 8 11 14 12 11 8 8 6 2 3 2 6 6 6 17 14 10 11 10 12 13 14 19 22 25 26 26 26 24 28 30 36 41 39 38 41 40 36 39 36 39 38 40
8 5 11 13 11 12 9 9 3 3 1 4 1 2 8 12 11 8 7 7 8 8 7 7 8 10 14 18 21 23 24 28 32 37 39 39 36 38 34 39 42 41 42 42
6 8 9 11 11 16 18 11 9 4 3 2 2 3 12 10 8 4 5 11 14 14 13 11 14 14 13 13 15 18 21 24 25 28 35 39 37 36 36 38 38 39 41 44
11 7 8 4 10 17 19 22 21 12 6 6 5 4 12 11 8 5 6 13 12 12 18 17 16 18 20 20 24 24 21 22 24 28 28 27 30 34 35 35 35 36 37 37
13 10 4 8 5 9 24 21 22 21 14 14 16 11 17 8 5 7 12 15 17 21 24 26 27 24 23 22 21 21 22 23 22 22 24 27 27 27 28 28 29 30 31 32
12 10 9 5 5 5 8 9 23 26 27 20 26 26 20 18 19 18 22 25 29 31 31 30 27 25 20 17 17 18 18 19 19 19 19 20 21 22 23 24 25 26 28 29
14 7 8 9 10 11 12 13 13 23 30 29 30 33 28 30 31 30 28 31 32 31 28 26 26 25 24 20 18 18 18 17 18 18 19 20 20 21 21 22 23 25 26 28
15 13 6 5 9 10 13 20 20 19 20 24 31 26 24 23 23 24 27 28 30 22 20 21 23 23 23 23 20 19 20 19 19 20 20 19 20 20 21 21 22 23 24 26
7 9 9 3 6 1 5 5 7 11 18 19 20 24 23 25 27 28 26 19 18 18 19 20 21 20 21 22 21 21 22 22 22 22 21 20 21 21 22 22 23 24 26 27
9 8 4 4 7 7 12 11 9 9 7 14 17 20 24 25 19 16 15 12 16 17 17 18 19 19 20 19 20 20 22 21 23 23 23 22 23 24 24 25 26 27 29 30
11 9 7 5 3 4 1 2 3 7 12 13 14 16 16 14 13 15 13 15 15 16 16 15 16 17 17 19 19 17 18 21 22 24 25 25 25 26 27 28 29 31 31 32
16 14 14 11 6 7 6 5 6 7 6 13 14 12 11 10 11 12 14 15 16 16 16 16 15 14 13 13 13 14 14 17 22 25 27 27 27 28 30 31 32 34 34 35
9 12 12 12 7 8 10 10 10 13 12 10 11 12 12 12 14 16 17 19 19 19 19 18 17 15 12 11 14 16 17 18 19 23 25 27 28 31 32 34 36 38 38 36
11 11 9 9 4 8 6 9 11 11 11 14 15 15 16 20 21 22 21 24 25 23 21 20 18 16 14 14 14 14 16 18 20 21 24 26 28 30 33 36 39 42 40 35
13 12 12 11 12 14 15 14 13 13 16 18 20 23 26 29 29 31 31 30 30 29 25 23 21 20 18 17 17 17 19 20 20 21 23 25 26 26 27 26 26 25 27 32
16 13 14 18 16 16 16 17 16 18 20 22 25 29 32 36 37 38 36 34 32 29 30 30 27 24 23 22 20 21 23 21 20 21 22 23 24 25 26 26 25 24 22 23
18 18 18 18 17 18 20 20 20 20 25 28 30 32 31 32 33 32 33 31 31 30 28 29 30 31 28 28 26 28 28 22 23 23 26 27 27 28 27 26 26 25 23 22
Wind_Direction
176 174 198 196 174 193 175 187 222 246 218 164 175 203 198 188 207 234 233 227 228 236 236 235 225 222 227 227 229 234 239 237 239 243 248 252 252 248 245 242 237 236 239 246
172 200 176 178 169 165 165 193 194 215 225 182 180 218 183 186 204 224 217 225 234 242 225 229 236 234 229 237 239 236 240 244 248 249 248 247 245 240 236 238 239 244 254 261
179 188 128 181 175 155 173 204 228 157 171 173 159 175 210 205 211 221 225 227 225 233 227 223 232 239 237 238 245 246 245 244 246 249 247 246 244 242 242 243 244 248 257 264
178 145 127 150 145 153 190 205 174 177 122 130 148 254 244 212 216 225 235 238 229 228 236 223 228 239 242 241 242 248 250 250 245 245 245 246 248 247 246 249 253 257 261 267
109 144 135 146 119 167 138 156 178 158 162 209 188 209 218 225 221 219 227 235 239 223 225 229 226 237 243 246 248 247 249 252 255 251 247 245 242 242 245 252 260 266 274 277
147 127 139 130 110 145 136 141 138 128 154 83 186 194 246 188 184 213 236 233 223 244 226 231 232 239 244 249 248 253 253 251 250 253 251 250 248 247 249 251 264 268 275 281
115 122 120 122 137 147 158 146 82 45 109 212 179 193 166 139 175 198 211 231 230 227 235 240 241 243 244 247 249 250 255 254 246 250 253 252 251 251 257 266 277 272 269 284
90 89 133 129 136 148 159 151 150 156 176 213 172 194 202 238 234 228 218 221 227 229 234 239 242 238 240 241 245 252 252 251 252 246 247 249 252 259 263 274 281 283 281 280
126 125 144 155 145 154 173 167 139 121 124 127 198 201 188 214 219 237 252 237 246 230 228 236 248 256 259 247 240 245 248 252 252 246 244 246 250 257 269 270 277 274 272 278
117 119 173 170 164 171 165 161 173 141 112 170 220 195 207 212 237 242 232 229 227 226 228 236 239 243 252 260 262 256 250 249 246 247 247 251 263 265 258 268 261 262 283 274
134 145 182 184 188 181 175 174 156 165 184 164 159 308 216 210 229 240 196 187 203 213 220 234 241 247 255 260 262 260 258 254 250 248 249 248 251 253 268 256 260 263 270 273
147 140 146 196 203 208 205 206 192 194 208 126 74 64 167 192 198 222 202 264 264 260 259 264 267 270 263 265 268 267 262 256 254 249 249 252 253 256 255 258 261 264 266 269
165 149 133 168 216 209 213 210 210 212 213 201 156 166 166 194 202 248 218 223 245 279 287 288 285 267 257 272 275 273 274 267 258 251 252 253 252 253 255 260 264 268 270 272
183 166 163 179 150 199 219 215 215 218 223 221 220 172 161 146 218 219 231 250 274 281 283 289 292 282 272 274 275 270 267 266 264 259 252 249 250 252 258 263 265 266 269 272
190 188 209 227 204 204 217 231 224 223 228 227 239 234 211 244 267 265 271 270 270 276 283 287 281 285 276 272 277 266 260 261 257 255 250 248 251 256 259 263 268 272 275 278
194 205 222 246 254 258 259 251 238 226 233 241 249 255 255 255 265 267 275 273 273 277 277 271 272 274 276 275 266 252 251 253 254 254 255 255 257 261 265 270 275 278 281 283
214 226 223 237 245 261 268 250 243 244 242 240 244 258 268 267 270 268 273 280 286 285 282 277 273 273 274 270 258 246 244 245 248 251 251 254 258 262 266 271 275 280 286 290
215 209 203 204 189 236 261 267 257 257 249 243 245 250 255 260 265 270 273 276 276 284 287 285 284 281 273 270 266 249 243 242 244 248 251 254 257 262 266 270 278 284 289 295
222 217 194 197 211 281 267 263 252 261 242 239 242 247 254 260 269 269 277 273 288 300 304 301 295 286 276 265 261 257 248 248 247 252 256 258 262 266 268 274 281 287 291 296
202 217 219 189 247 245 239 235 277 236 217 226 236 241 255 264 263 275 279 284 295 301 304 307 305 297 283 269 267 260 251 246 247 249 255 260 266 270 272 278 284 288 292 297
203 211 225 226 234 251 225 230 248 238 235 231 238 239 251 265 280 282 284 293 300 303 303 309 314 311 303 281 261 262 264 259 251 253 254 258 263 266 279 279 282 285 289 294
199 199 214 229 234 265 218 228 240 263 265 236 231 239 254 269 280 287 289 293 296 300 302 304 307 306 296 285 271 268 266 268 264 257 257 260 265 269 274 277 280 283 285 287
209 212 195 206 217 248 237 241 259 266 257 255 262 268 273 278 282 287 286 289 290 290 289 292 295 304 299 283 278 275 269 264 262 261 261 264 268 273 278 281 282 281 277 278
220 221 227 226 236 253 262 267 264 264 268 274 281 283 286 288 287 287 288 285 284 281 277 279 282 286 290 289 284 272 266 265 265 265 267 270 273 276 280 286 287 291 282 273
230 225 234 234 242 249 262 271 276 279 279 279 281 286 289 290 290 289 289 287 283 278 271 267 268 271 276 279 283 280 271 268 269 269 268 271 276 278 282 286 292 296 295 280
236 245 240 244 251 259 266 271 274 277 285 289 292 293 293 294 295 294 294 292 287 280 273 268 264 260 263 269 273 279 285 275 270 274 275 277 279 282 283 285 285 290 287 292